| time (UTC) | temp C | wind direction | speed KPH | gust KPH | rain 1hr cm | rain 24hr cm | rain mn cm | humidity % | barometer mb |
| 20260906221024 | 36 | 121 | 3.2 | 14.5 | 0.00 | 0.00 | 0.00 | 43 | 1011.2 |
| 20260906220525 | 36 | 0 | 1.6 | 14.5 | 0.00 | 0.00 | 0.00 | 42 | 1011.2 |
| 20260906220049 | 36 | 104 | 6.4 | 20.9 | 0.00 | 0.00 | 0.00 | 42 | 1011.2 |
| 20260906215525 | 36 | 128 | 8.0 | 20.9 | 0.00 | 0.00 | 0.00 | 43 | 1011.3 |
| 20260906215024 | 36 | 107 | 11.3 | 20.9 | 0.00 | 0.00 | 0.00 | 42 | 1011.4 |
| 20260906214547 | 36 | 109 | 6.4 | 24.1 | 0.00 | 0.00 | 0.00 | 43 | 1011.4 |
| 20260906214024 | 36 | 100 | 9.7 | 24.1 | 0.00 | 0.00 | 0.00 | 42 | 1011.4 |
| 20260906213523 | 36 | 120 | 8.0 | 24.1 | 0.00 | 0.00 | 0.00 | 42 | 1011.5 |
| 20260906213043 | 36 | 175 | 8.0 | 17.7 | 0.00 | 0.00 | 0.00 | 42 | 1011.5 |
| 20260906212520 | 36 | 129 | 4.8 | 19.3 | 0.00 | 0.00 | 0.00 | 43 | 1011.7 |
| 20260906212024 | 36 | 107 | 8.0 | 25.7 | 0.00 | 0.00 | 0.00 | 44 | 1011.8 |
| 20260906211547 | 36 | 136 | 12.9 | 25.7 | 0.00 | 0.00 | 0.00 | 44 | 1011.9 |
| 20260906211028 | 36 | 136 | 8.0 | 19.3 | 0.00 | 0.00 | 0.00 | 43 | 1011.9 |
| 20260906210525 | 36 | 94 | 9.7 | 20.9 | 0.00 | 0.00 | 0.00 | 43 | 1012.1 |
| 20260906210050 | 36 | 103 | 11.3 | 20.9 | 0.00 | 0.00 | 0.00 | 42 | 1012.2 |
| 20260906205524 | 37 | 107 | 6.4 | 24.1 | 0.00 | 0.00 | 0.00 | 43 | 1012.2 |
| 20260906205022 | 36 | 60 | 11.3 | 24.1 | 0.00 | 0.00 | 0.00 | 43 | 1012.3 |
| 20260906204556 | 36 | 86 | 11.3 | 22.5 | 0.00 | 0.00 | 0.00 | 42 | 1012.5 |
| 20260906204022 | 36 | 130 | 11.3 | 22.5 | 0.00 | 0.00 | 0.00 | 44 | 1012.5 |
| 20260906203521 | 36 | 143 | 8.0 | 22.5 | 0.00 | 0.00 | 0.00 | 43 | 1012.5 |
| 20260906203045 | 36 | 110 | 8.0 | 20.9 | 0.00 | 0.00 | 0.00 | 43 | 1012.5 |
| 20260906202521 | 36 | 123 | 11.3 | 22.5 | 0.00 | 0.00 | 0.00 | 43 | 1012.6 |
| 20260906202025 | 36 | 144 | 12.9 | 22.5 | 0.00 | 0.00 | 0.00 | 44 | 1012.6 |
| 20260906201548 | 36 | 159 | 11.3 | 25.7 | 0.00 | 0.00 | 0.00 | 44 | 1012.8 |
| 20260906201023 | 36 | 128 | 9.7 | 25.7 | 0.00 | 0.00 | 0.00 | 45 | 1012.8 |
| 20260906200527 | 36 | 133 | 8.0 | 19.3 | 0.00 | 0.00 | 0.00 | 44 | 1012.8 |
| 20260906200041 | 36 | 67 | 9.7 | 24.1 | 0.00 | 0.00 | 0.00 | 43 | 1012.8 |
| 20260906195526 | 36 | 103 | 14.5 | 24.1 | 0.00 | 0.00 | 0.00 | 44 | 1012.8 |
| 20260906195028 | 36 | 72 | 8.0 | 29.0 | 0.00 | 0.00 | 0.00 | 44 | 1013.0 |
| 20260906194602 | 36 | 153 | 9.7 | 29.0 | 0.00 | 0.00 | 0.00 | 45 | 1013.0 |
| 20260906194025 | 36 | 141 | 9.7 | 20.9 | 0.00 | 0.00 | 0.00 | 45 | 1013.1 |
| 20260906193524 | 36 | 116 | 9.7 | 20.9 | 0.00 | 0.00 | 0.00 | 43 | 1013.1 |
| 20260906193043 | 36 | 80 | 9.7 | 24.1 | 0.00 | 0.00 | 0.00 | 45 | 1013.2 |
| 20260906192521 | 36 | 139 | 8.0 | 24.1 | 0.00 | 0.00 | 0.00 | 44 | 1013.3 |
| 20260906192024 | 35 | 61 | 12.9 | 25.7 | 0.00 | 0.00 | 0.00 | 45 | 1013.3 |
| 20260906191545 | 35 | 53 | 9.7 | 25.7 | 0.00 | 0.00 | 0.00 | 45 | 1013.4 |
| 20260906191025 | 36 | 117 | 9.7 | 22.5 | 0.00 | 0.00 | 0.00 | 44 | 1013.4 |
| 20260906190527 | 36 | 108 | 9.7 | 22.5 | 0.00 | 0.00 | 0.00 | 45 | 1013.4 |
| 20260906190050 | 36 | 88 | 11.3 | 22.5 | 0.00 | 0.00 | 0.00 | 45 | 1013.4 |
| 20260906185523 | 36 | 95 | 6.4 | 27.4 | 0.00 | 0.00 | 0.00 | 46 | 1013.4 |
| 20260906185024 | 35 | 135 | 14.5 | 27.4 | 0.00 | 0.00 | 0.00 | 47 | 1013.4 |
| 20260906184548 | 35 | 107 | 8.0 | 19.3 | 0.00 | 0.00 | 0.00 | 49 | 1013.5 |
| 20260906184023 | 35 | 138 | 9.7 | 32.2 | 0.00 | 0.00 | 0.00 | 48 | 1013.6 |
| 20260906183522 | 35 | 138 | 11.3 | 32.2 | 0.00 | 0.00 | 0.00 | 49 | 1013.6 |
| 20260906183059 | 35 | 64 | 14.5 | 32.2 | 0.00 | 0.00 | 0.00 | 48 | 1013.6 |
| 20260906182521 | 35 | 101 | 6.4 | 19.3 | 0.00 | 0.00 | 0.00 | 48 | 1013.7 |
| 20260906182026 | 35 | 129 | 11.3 | 20.9 | 0.00 | 0.00 | 0.00 | 48 | 1013.9 |
| 20260906181550 | 35 | 144 | 9.7 | 20.9 | 0.00 | 0.00 | 0.00 | 49 | 1013.8 |
| 20260906181024 | 35 | 98 | 8.0 | 19.3 | 0.00 | 0.00 | 0.00 | 50 | 1014.0 |
| 20260906180525 | 35 | 88 | 9.7 | 19.3 | 0.00 | 0.00 | 0.00 | 49 | 1014.0 |
| 20260906180104 | 35 | 156 | 11.3 | 19.3 | 0.00 | 0.00 | 0.00 | 49 | 1014.1 |
| 20260906175527 | 35 | 134 | 4.8 | 19.3 | 0.00 | 0.00 | 0.00 | 49 | 1014.1 |
| 20260906175023 | 35 | 165 | 11.3 | 19.3 | 0.00 | 0.00 | 0.00 | 50 | 1014.2 |
| 20260906174604 | 35 | 143 | 8.0 | 17.7 | 0.00 | 0.00 | 0.00 | 51 | 1014.3 |
| 20260906174023 | 35 | 131 | 8.0 | 16.1 | 0.00 | 0.00 | 0.00 | 50 | 1014.4 |
| 20260906173523 | 35 | 156 | 6.4 | 19.3 | 0.00 | 0.00 | 0.00 | 50 | 1014.5 |
| 20260906173046 | 35 | 129 | 6.4 | 19.3 | 0.00 | 0.00 | 0.00 | 51 | 1014.5 |
| 20260906172526 | 34 | 97 | 8.0 | 27.4 | 0.00 | 0.00 | 0.00 | 50 | 1014.6 |
| 20260906172025 | 34 | 123 | 11.3 | 27.4 | 0.00 | 0.00 | 0.00 | 51 | 1014.7 |
| 20260906171559 | 34 | 120 | 14.5 | 27.4 | 0.00 | 0.00 | 0.00 | 50 | 1014.7 |
| 20260906171027 | 34 | 118 | 9.7 | 20.9 | 0.00 | 0.00 | 0.00 | 51 | 1014.6 |
| 20260906170524 | 35 | 81 | 6.4 | 20.9 | 0.00 | 0.00 | 0.00 | 51 | 1014.6 |
| 20260906170058 | 35 | 126 | 11.3 | 20.9 | 0.00 | 0.00 | 0.00 | 52 | 1014.8 |
| 20260906165524 | 34 | 82 | 8.0 | 20.9 | 0.00 | 0.00 | 0.00 | 51 | 1014.8 |
| 20260906165024 | 34 | 93 | 9.7 | 20.9 | 0.00 | 0.00 | 0.00 | 53 | 1014.9 |
| 20260906164548 | 34 | 105 | 8.0 | 19.3 | 0.00 | 0.00 | 0.00 | 53 | 1015.0 |
| 20260906164023 | 34 | 121 | 6.4 | 16.1 | 0.00 | 0.00 | 0.00 | 54 | 1015.0 |
| 20260906163522 | 34 | 115 | 9.7 | 17.7 | 0.00 | 0.00 | 0.00 | 53 | 1015.0 |
| 20260906163043 | 34 | 144 | 8.0 | 17.7 | 0.00 | 0.00 | 0.00 | 54 | 1014.9 |
| 20260906162522 | 33 | 110 | 0.0 | 17.7 | 0.00 | 0.00 | 0.00 | 55 | 1015.0 |
| 20260906162025 | 33 | 0 | 4.8 | 17.7 | 0.00 | 0.00 | 0.00 | 55 | 1015.0 |
| 20260906161612 | 33 | 122 | 6.4 | 16.1 | 0.00 | 0.00 | 0.00 | 55 | 1015.0 |
| 20260906161024 | 33 | 140 | 6.4 | 16.1 | 0.00 | 0.00 | 0.00 | 56 | 1014.9 |
| 20260906160524 | 33 | 150 | 9.7 | 16.1 | 0.00 | 0.00 | 0.00 | 55 | 1014.9 |
| 20260906160049 | 33 | 151 | 4.8 | 12.9 | 0.00 | 0.00 | 0.00 | 57 | 1014.8 |
| 20260906155526 | 33 | 104 | 3.2 | 11.3 | 0.00 | 0.00 | 0.00 | 57 | 1014.8 |
| 20260906155023 | 33 | 121 | 1.6 | 12.9 | 0.00 | 0.00 | 0.00 | 58 | 1014.9 |
| 20260906154550 | 33 | 119 | 4.8 | 12.9 | 0.00 | 0.00 | 0.00 | 57 | 1015.0 |
| 20260906154025 | 33 | 99 | 4.8 | 12.9 | 0.00 | 0.00 | 0.00 | 58 | 1014.9 |
| 20260906153524 | 32 | 72 | 3.2 | 12.9 | 0.00 | 0.00 | 0.00 | 58 | 1014.9 |
| 20260906153107 | 32 | 62 | 3.2 | 12.9 | 0.00 | 0.00 | 0.00 | 59 | 1014.7 |
| 20260906152526 | 32 | 128 | 3.2 | 9.7 | 0.00 | 0.00 | 0.00 | 58 | 1014.7 |
| 20260906152024 | 32 | 0 | 3.2 | 9.7 | 0.00 | 0.00 | 0.00 | 59 | 1014.7 |
| 20260906151549 | 32 | 0 | 0.0 | 0.0 | 0.00 | 0.00 | 0.00 | 61 | 1014.6 |
| 20260906151025 | 32 | 0 | 0.0 | 0.0 | 0.00 | 0.00 | 0.00 | 62 | 1014.5 |
| 20260906150524 | 32 | 0 | 0.0 | 0.0 | 0.00 | 0.00 | 0.00 | 63 | 1014.6 |
| 20260906150049 | 31 | 0 | 0.0 | 0.0 | 0.00 | 0.00 | 0.00 | 63 | 1014.4 |
| 20260906145522 | 31 | 0 | 0.0 | 0.0 | 0.00 | 0.00 | 0.00 | 64 | 1014.4 |
| 20260906145023 | 31 | 0 | 0.0 | 0.0 | 0.00 | 0.00 | 0.00 | 65 | 1014.5 |
| 20260906144543 | 31 | 0 | 0.0 | 0.0 | 0.00 | 0.00 | 0.00 | 66 | 1014.4 |
| 20260906144021 | 30 | 0 | 0.0 | 6.4 | 0.00 | 0.00 | 0.00 | 67 | 1014.4 |
| 20260906143523 | 30 | 0 | 0.0 | 8.0 | 0.00 | 0.00 | 0.00 | 69 | 1014.4 |
| 20260906143042 | 30 | 113 | 3.2 | 8.0 | 0.00 | 0.00 | 0.00 | 69 | 1014.4 |
| 20260906142518 | 30 | 73 | 1.6 | 6.4 | 0.00 | 0.00 | 0.00 | 69 | 1014.4 |
| 20260906142025 | 30 | 113 | 0.0 | 6.4 | 0.00 | 0.00 | 0.00 | 70 | 1014.3 |
| 20260906141603 | 29 | 0 | 0.0 | 6.4 | 0.00 | 0.00 | 0.00 | 71 | 1014.4 |
| 20260906141024 | 28 | 127 | 1.6 | 9.7 | 0.00 | 0.00 | 0.00 | 73 | 1014.4 |
| 20260906140523 | 28 | 144 | 1.6 | 9.7 | 0.00 | 0.00 | 0.00 | 74 | 1014.4 |
| 20260906140048 | 28 | 150 | 0.0 | 8.0 | 0.00 | 0.00 | 0.00 | 74 | 1014.5 |
| 20260906135525 | 28 | 138 | 4.8 | 9.7 | 0.00 | 0.00 | 0.00 | 74 | 1014.4 |
| 20260906135023 | 28 | 134 | 1.6 | 11.3 | 0.00 | 0.00 | 0.00 | 75 | 1014.5 |
| 20260906134542 | 27 | 136 | 4.8 | 11.3 | 0.00 | 0.00 | 0.00 | 76 | 1014.7 |
| 20260906134021 | 27 | 126 | 4.8 | 11.3 | 0.00 | 0.00 | 0.00 | 76 | 1014.7 |
| 20260906133522 | 27 | 150 | 6.4 | 11.3 | 0.00 | 0.00 | 0.00 | 77 | 1014.7 |
| 20260906133046 | 27 | 150 | 4.8 | 8.0 | 0.00 | 0.00 | 0.00 | 78 | 1014.6 |
| 20260906132523 | 27 | 117 | 1.6 | 8.0 | 0.00 | 0.00 | 0.00 | 79 | 1014.5 |
| 20260906132024 | 27 | 140 | 1.6 | 8.0 | 0.00 | 0.00 | 0.00 | 80 | 1014.6 |
| 20260906131600 | 26 | 0 | 0.0 | 0.0 | 0.00 | 0.00 | 0.00 | 81 | 1014.6 |
| 20260906131025 | 26 | 0 | 0.0 | 0.0 | 0.00 | 0.00 | 0.00 | 82 | 1014.5 |
| 20260906130524 | 25 | 0 | 0.0 | 0.0 | 0.00 | 0.00 | 0.00 | 83 | 1014.5 |
| 20260906130056 | 25 | 0 | 0.0 | 0.0 | 0.00 | 0.00 | 0.00 | 84 | 1014.3 |
| 20260906125521 | 25 | 0 | 0.0 | 0.0 | 0.00 | 0.00 | 0.00 | 85 | 1014.3 |
| 20260906125023 | 25 | 0 | 0.0 | 0.0 | 0.00 | 0.00 | 0.00 | 85 | 1014.4 |
| 20260906124543 | 24 | 0 | 0.0 | 0.0 | 0.00 | 0.00 | 0.00 | 85 | 1014.4 |
| 20260906124021 | 24 | 0 | 0.0 | 0.0 | 0.00 | 0.00 | 0.00 | 85 | 1014.4 |
| 20260906123521 | 24 | 0 | 0.0 | 0.0 | 0.00 | 0.00 | 0.00 | 85 | 1014.3 |
| 20260906123042 | 24 | 0 | 0.0 | 0.0 | 0.00 | 0.00 | 0.00 | 85 | 1014.2 |
| 20260906122520 | 24 | 0 | 0.0 | 0.0 | 0.00 | 0.00 | 0.00 | 85 | 1014.2 |
| 20260906122018 | 24 | 0 | 0.0 | 0.0 | 0.00 | 0.00 | 0.00 | 85 | 1014.2 |
| 20260906121541 | 23 | 0 | 0.0 | 0.0 | 0.00 | 0.00 | 0.00 | 85 | 1014.0 |
| 20260906121029 | 23 | 0 | 0.0 | 0.0 | 0.00 | 0.00 | 0.00 | 85 | 1014.0 |
| 20260906120527 | 23 | 0 | 0.0 | 0.0 | 0.00 | 0.00 | 0.00 | 85 | 1014.0 |
| 20260906120047 | 23 | 0 | 0.0 | 0.0 | 0.00 | 0.00 | 0.00 | 85 | 1014.0 |
| 20260906115524 | 23 | 0 | 0.0 | 0.0 | 0.00 | 0.00 | 0.00 | 85 | 1014.1 |
| 20260906115022 | 23 | 0 | 0.0 | 0.0 | 0.00 | 0.00 | 0.00 | 85 | 1014.0 |
| 20260906114548 | 23 | 0 | 0.0 | 0.0 | 0.00 | 0.00 | 0.00 | 84 | 1013.9 |
| 20260906114023 | 23 | 0 | 0.0 | 0.0 | 0.00 | 0.00 | 0.00 | 84 | 1013.8 |
| 20260906113521 | 24 | 0 | 0.0 | 0.0 | 0.00 | 0.00 | 0.00 | 84 | 1013.7 |
| 20260906113042 | 23 | 0 | 0.0 | 0.0 | 0.00 | 0.00 | 0.00 | 84 | 1013.7 |
| 20260906112517 | 24 | 0 | 0.0 | 0.0 | 0.00 | 0.00 | 0.00 | 84 | 1013.6 |
| 20260906112020 | 24 | 0 | 0.0 | 0.0 | 0.00 | 0.00 | 0.00 | 84 | 1013.5 |
| 20260906111550 | 24 | 0 | 0.0 | 0.0 | 0.00 | 0.00 | 0.00 | 83 | 1013.6 |
| 20260906111024 | 24 | 0 | 0.0 | 0.0 | 0.00 | 0.00 | 0.00 | 83 | 1013.6 |
| 20260906110524 | 24 | 0 | 0.0 | 0.0 | 0.00 | 0.00 | 0.00 | 83 | 1013.5 |
| 20260906110046 | 24 | 0 | 0.0 | 0.0 | 0.00 | 0.00 | 0.00 | 84 | 1013.6 |
| 20260906105524 | 24 | 0 | 0.0 | 0.0 | 0.00 | 0.00 | 0.00 | 84 | 1013.5 |
| 20260906105024 | 23 | 0 | 0.0 | 0.0 | 0.00 | 0.00 | 0.00 | 84 | 1013.4 |
| 20260906104542 | 24 | 0 | 0.0 | 0.0 | 0.00 | 0.00 | 0.00 | 83 | 1013.3 |
| 20260906104024 | 24 | 0 | 0.0 | 0.0 | 0.00 | 0.00 | 0.00 | 83 | 1013.3 |
| 20260906103519 | 24 | 0 | 0.0 | 0.0 | 0.00 | 0.00 | 0.00 | 83 | 1013.3 |
| 20260906103047 | 24 | 0 | 0.0 | 0.0 | 0.00 | 0.00 | 0.00 | 82 | 1013.2 |
| 20260906102519 | 24 | 0 | 0.0 | 0.0 | 0.00 | 0.00 | 0.00 | 82 | 1013.2 |
| 20260906102019 | 25 | 0 | 0.0 | 0.0 | 0.00 | 0.00 | 0.00 | 82 | 1013.3 |
| 20260906101540 | 25 | 0 | 0.0 | 0.0 | 0.00 | 0.00 | 0.00 | 82 | 1013.3 |
| 20260906101024 | 25 | 0 | 0.0 | 0.0 | 0.00 | 0.00 | 0.00 | 82 | 1013.2 |
| 20260906100528 | 25 | 0 | 0.0 | 0.0 | 0.00 | 0.00 | 0.00 | 82 | 1013.1 |
| 20260906100046 | 25 | 0 | 0.0 | 0.0 | 0.00 | 0.00 | 0.00 | 83 | 1013.1 |
| 20260906095525 | 25 | 0 | 0.0 | 0.0 | 0.00 | 0.00 | 0.00 | 83 | 1013.1 |
| 20260906095022 | 25 | 0 | 0.0 | 0.0 | 0.00 | 0.00 | 0.00 | 82 | 1013.1 |
| 20260906094545 | 25 | 0 | 0.0 | 0.0 | 0.00 | 0.00 | 0.00 | 82 | 1013.0 |
| 20260906094023 | 25 | 0 | 0.0 | 0.0 | 0.00 | 0.00 | 0.00 | 81 | 1013.1 |
| 20260906093519 | 25 | 0 | 0.0 | 0.0 | 0.00 | 0.00 | 0.00 | 81 | 1013.0 |
| 20260906093051 | 25 | 0 | 0.0 | 0.0 | 0.00 | 0.00 | 0.00 | 80 | 1013.0 |
| 20260906092523 | 25 | 0 | 0.0 | 0.0 | 0.00 | 0.00 | 0.00 | 80 | 1012.9 |
| 20260906092024 | 25 | 0 | 0.0 | 0.0 | 0.00 | 0.00 | 0.00 | 81 | 1012.9 |
| 20260906091550 | 25 | 0 | 0.0 | 0.0 | 0.00 | 0.00 | 0.00 | 81 | 1012.8 |
| 20260906091024 | 25 | 0 | 0.0 | 0.0 | 0.00 | 0.00 | 0.00 | 81 | 1012.8 |
| 20260906090523 | 25 | 0 | 0.0 | 0.0 | 0.00 | 0.00 | 0.00 | 80 | 1012.8 |
| 20260906090053 | 25 | 0 | 0.0 | 0.0 | 0.00 | 0.00 | 0.00 | 80 | 1012.7 |
| 20260906085522 | 25 | 0 | 0.0 | 0.0 | 0.00 | 0.00 | 0.00 | 80 | 1012.7 |
| 20260906085023 | 25 | 0 | 0.0 | 0.0 | 0.00 | 0.00 | 0.00 | 80 | 1012.8 |
| 20260906084543 | 25 | 0 | 0.0 | 0.0 | 0.00 | 0.00 | 0.00 | 80 | 1012.7 |
| 20260906084030 | 25 | 0 | 0.0 | 0.0 | 0.00 | 0.00 | 0.00 | 80 | 1012.7 |
| 20260906083521 | 25 | 0 | 0.0 | 0.0 | 0.00 | 0.00 | 0.00 | 80 | 1012.7 |
| 20260906083047 | 25 | 0 | 0.0 | 0.0 | 0.00 | 0.00 | 0.00 | 79 | 1012.5 |
| 20260906082520 | 25 | 0 | 0.0 | 0.0 | 0.00 | 0.00 | 0.00 | 79 | 1012.5 |
| 20260906082024 | 25 | 0 | 0.0 | 0.0 | 0.00 | 0.00 | 0.00 | 78 | 1012.5 |
| 20260906081541 | 25 | 0 | 0.0 | 0.0 | 0.00 | 0.00 | 0.00 | 78 | 1012.4 |
| 20260906081024 | 25 | 0 | 0.0 | 0.0 | 0.00 | 0.00 | 0.00 | 78 | 1012.4 |
| 20260906080524 | 25 | 0 | 0.0 | 0.0 | 0.00 | 0.00 | 0.00 | 78 | 1012.6 |
| 20260906080048 | 25 | 0 | 0.0 | 0.0 | 0.00 | 0.00 | 0.00 | 78 | 1012.7 |
| 20260906075523 | 25 | 0 | 0.0 | 0.0 | 0.00 | 0.00 | 0.00 | 77 | 1012.6 |
| 20260906075022 | 25 | 0 | 0.0 | 0.0 | 0.00 | 0.00 | 0.00 | 77 | 1012.7 |
| 20260906074543 | 25 | 0 | 0.0 | 0.0 | 0.00 | 0.00 | 0.00 | 78 | 1012.7 |
| 20260906074022 | 25 | 0 | 0.0 | 0.0 | 0.00 | 0.00 | 0.00 | 78 | 1012.8 |
| 20260906073523 | 25 | 0 | 0.0 | 0.0 | 0.00 | 0.00 | 0.00 | 77 | 1012.8 |
| 20260906073043 | 25 | 0 | 0.0 | 0.0 | 0.00 | 0.00 | 0.00 | 78 | 1012.9 |
| 20260906072518 | 25 | 0 | 0.0 | 0.0 | 0.00 | 0.00 | 0.00 | 78 | 1012.9 |
| 20260906072025 | 26 | 0 | 0.0 | 0.0 | 0.00 | 0.00 | 0.00 | 77 | 1013.0 |
| 20260906071540 | 26 | 0 | 0.0 | 0.0 | 0.00 | 0.00 | 0.00 | 76 | 1013.1 |
| 20260906071024 | 26 | 0 | 0.0 | 0.0 | 0.00 | 0.00 | 0.00 | 76 | 1013.0 |
| 20260906070528 | 26 | 0 | 0.0 | 0.0 | 0.00 | 0.00 | 0.00 | 76 | 1012.8 |
| 20260906070048 | 26 | 0 | 0.0 | 0.0 | 0.00 | 0.00 | 0.00 | 75 | 1012.9 |
| 20260906065523 | 26 | 0 | 0.0 | 0.0 | 0.00 | 0.00 | 0.00 | 74 | 1012.9 |
| 20260906065027 | 26 | 0 | 0.0 | 0.0 | 0.00 | 0.00 | 0.00 | 74 | 1012.9 |
| 20260906064543 | 26 | 0 | 0.0 | 0.0 | 0.00 | 0.00 | 0.00 | 73 | 1012.9 |
| 20260906064021 | 27 | 0 | 0.0 | 0.0 | 0.00 | 0.00 | 0.00 | 73 | 1013.0 |
| 20260906063521 | 27 | 0 | 0.0 | 0.0 | 0.00 | 0.00 | 0.00 | 73 | 1012.9 |
| 20260906063043 | 27 | 0 | 0.0 | 0.0 | 0.00 | 0.00 | 0.00 | 73 | 1013.0 |
| 20260906062525 | 27 | 0 | 0.0 | 0.0 | 0.00 | 0.00 | 0.00 | 73 | 1012.9 |
| 20260906062019 | 27 | 0 | 0.0 | 0.0 | 0.00 | 0.00 | 0.00 | 72 | 1013.0 |
| 20260906061547 | 27 | 0 | 0.0 | 0.0 | 0.00 | 0.00 | 0.00 | 72 | 1013.0 |
| 20260906061024 | 27 | 0 | 0.0 | 0.0 | 0.00 | 0.00 | 0.00 | 72 | 1013.0 |
| 20260906060523 | 27 | 0 | 0.0 | 0.0 | 0.00 | 0.00 | 0.00 | 71 | 1012.8 |
| 20260906060052 | 27 | 0 | 0.0 | 0.0 | 0.00 | 0.00 | 0.00 | 71 | 1012.9 |
| 20260906055524 | 27 | 0 | 0.0 | 0.0 | 0.00 | 0.00 | 0.00 | 71 | 1013.0 |
| 20260906055024 | 27 | 0 | 0.0 | 0.0 | 0.00 | 0.00 | 0.00 | 71 | 1013.1 |
| 20260906054546 | 27 | 0 | 0.0 | 0.0 | 0.00 | 0.00 | 0.00 | 70 | 1013.0 |
| 20260906054019 | 28 | 0 | 0.0 | 0.0 | 0.00 | 0.00 | 0.00 | 70 | 1013.0 |
| 20260906053521 | 28 | 0 | 0.0 | 0.0 | 0.00 | 0.00 | 0.00 | 70 | 1013.2 |
| 20260906053043 | 28 | 0 | 0.0 | 0.0 | 0.00 | 0.00 | 0.00 | 70 | 1013.1 |
| 20260906052520 | 28 | 0 | 0.0 | 0.0 | 0.00 | 0.00 | 0.00 | 69 | 1013.3 |
| 20260906052021 | 28 | 0 | 0.0 | 0.0 | 0.00 | 0.00 | 0.00 | 68 | 1013.3 |
| 20260906051541 | 28 | 0 | 0.0 | 0.0 | 0.00 | 0.00 | 0.00 | 68 | 1013.3 |
| 20260906051021 | 28 | 0 | 0.0 | 0.0 | 0.00 | 0.00 | 0.00 | 67 | 1013.1 |
| 20260906050525 | 28 | 0 | 0.0 | 0.0 | 0.00 | 0.00 | 0.00 | 67 | 1013.0 |
| 20260906050048 | 28 | 0 | 0.0 | 0.0 | 0.00 | 0.00 | 0.00 | 67 | 1013.1 |
| 20260906045524 | 28 | 0 | 0.0 | 1.6 | 0.00 | 0.00 | 0.00 | 67 | 1013.1 |
| 20260906045022 | 29 | 0 | 0.0 | 4.8 | 0.00 | 0.00 | 0.00 | 66 | 1013.1 |
| 20260906044542 | 29 | 0 | 0.0 | 4.8 | 0.00 | 0.00 | 0.00 | 66 | 1013.2 |
| 20260906044023 | 29 | 0 | 0.0 | 8.0 | 0.00 | 0.00 | 0.00 | 65 | 1013.1 |
| 20260906043521 | 29 | 0 | 1.6 | 8.0 | 0.00 | 0.00 | 0.00 | 65 | 1013.0 |
| 20260906043040 | 29 | 138 | 3.2 | 8.0 | 0.00 | 0.00 | 0.00 | 65 | 1013.1 |
| 20260906042523 | 29 | 137 | 0.0 | 6.4 | 0.00 | 0.00 | 0.00 | 65 | 1013.0 |
| 20260906042020 | 29 | 0 | 0.0 | 4.8 | 0.00 | 0.00 | 0.00 | 65 | 1013.0 |
| 20260906041543 | 30 | 137 | 0.0 | 4.8 | 0.00 | 0.00 | 0.00 | 64 | 1012.9 |
| 20260906041024 | 30 | 136 | 1.6 | 8.0 | 0.00 | 0.00 | 0.00 | 64 | 1012.9 |
| 20260906040524 | 30 | 0 | 1.6 | 8.0 | 0.00 | 0.00 | 0.00 | 64 | 1012.9 |
| 20260906040045 | 30 | 136 | 3.2 | 8.0 | 0.00 | 0.00 | 0.00 | 63 | 1012.9 |
| 20260906035522 | 30 | 138 | 4.8 | 8.0 | 0.00 | 0.00 | 0.00 | 63 | 1012.9 |
| 20260906035021 | 30 | 127 | 3.2 | 14.5 | 0.00 | 0.00 | 0.00 | 63 | 1013.0 |
| 20260906034557 | 30 | 144 | 6.4 | 14.5 | 0.00 | 0.00 | 0.00 | 63 | 1013.0 |
| 20260906034020 | 30 | 140 | 3.2 | 14.5 | 0.00 | 0.00 | 0.00 | 62 | 1013.0 |
| 20260906033520 | 30 | 136 | 6.4 | 16.1 | 0.00 | 0.00 | 0.00 | 62 | 1013.1 |
| 20260906033044 | 30 | 133 | 6.4 | 17.7 | 0.00 | 0.00 | 0.00 | 62 | 1013.1 |
| 20260906032520 | 31 | 140 | 8.0 | 19.3 | 0.00 | 0.00 | 0.00 | 61 | 1013.1 |
| 20260906032025 | 31 | 132 | 6.4 | 19.3 | 0.00 | 0.00 | 0.00 | 61 | 1012.9 |
| 20260906031549 | 31 | 139 | 9.7 | 17.7 | 0.00 | 0.00 | 0.00 | 61 | 1013.0 |
| 20260906031024 | 31 | 144 | 8.0 | 17.7 | 0.00 | 0.00 | 0.00 | 60 | 1013.0 |
| 20260906030526 | 31 | 144 | 8.0 | 17.7 | 0.00 | 0.00 | 0.00 | 60 | 1012.9 |
| 20260906030044 | 31 | 153 | 9.7 | 17.7 | 0.00 | 0.00 | 0.00 | 60 | 1012.9 |
| 20260906025523 | 31 | 148 | 8.0 | 20.9 | 0.00 | 0.00 | 0.00 | 59 | 1012.7 |
| 20260906025021 | 31 | 150 | 11.3 | 20.9 | 0.00 | 0.00 | 0.00 | 59 | 1012.8 |
| 20260906024543 | 31 | 136 | 9.7 | 19.3 | 0.00 | 0.00 | 0.00 | 58 | 1012.8 |
| 20260906024022 | 31 | 163 | 11.3 | 24.1 | 0.00 | 0.00 | 0.00 | 57 | 1012.6 |
| 20260906023520 | 32 | 146 | 11.3 | 24.1 | 0.00 | 0.00 | 0.00 | 57 | 1012.5 |
| 20260906023040 | 32 | 163 | 12.9 | 22.5 | 0.00 | 0.00 | 0.00 | 56 | 1012.4 |
| 20260906022522 | 32 | 161 | 9.7 | 19.3 | 0.00 | 0.00 | 0.00 | 55 | 1012.4 |
| 20260906022020 | 32 | 126 | 12.9 | 19.3 | 0.00 | 0.00 | 0.00 | 54 | 1012.4 |
| 20260906021557 | 32 | 154 | 4.8 | 11.3 | 0.00 | 0.00 | 0.00 | 51 | 1012.3 |
| 20260906021017 | 31 | 0 | 0.0 | 1.6 | 0.00 | 0.00 | 0.00 | 51 | 1012.1 |
| 20260906020518 | 32 | 0 | 0.0 | 1.6 | 0.00 | 0.00 | 0.00 | 51 | 1012.0 |
| 20260906020042 | 32 | 92 | 0.0 | 1.6 | 0.00 | 0.00 | 0.00 | 50 | 1012.0 |
| 20260906015524 | 32 | 0 | 0.0 | 0.0 | 0.00 | 0.00 | 0.00 | 50 | 1011.9 |
| 20260906015025 | 32 | 0 | 0.0 | 0.0 | 0.00 | 0.00 | 0.00 | 50 | 1011.9 |
| 20260906014550 | 32 | 0 | 0.0 | 0.0 | 0.00 | 0.00 | 0.00 | 49 | 1011.7 |
| 20260906014028 | 32 | 0 | 0.0 | 0.0 | 0.00 | 0.00 | 0.00 | 49 | 1011.7 |
| 20260906013523 | 32 | 0 | 0.0 | 0.0 | 0.00 | 0.00 | 0.00 | 49 | 1011.6 |
| 20260906013044 | 32 | 0 | 0.0 | 0.0 | 0.00 | 0.00 | 0.00 | 48 | 1011.6 |
| 20260906012523 | 33 | 0 | 0.0 | 3.2 | 0.00 | 0.00 | 0.00 | 48 | 1011.6 |
| 20260906012022 | 33 | 0 | 0.0 | 3.2 | 0.00 | 0.00 | 0.00 | 48 | 1011.5 |
| 20260906011542 | 33 | 0 | 0.0 | 4.8 | 0.00 | 0.00 | 0.00 | 48 | 1011.5 |
| 20260906011021 | 33 | 93 | 0.0 | 4.8 | 0.00 | 0.00 | 0.00 | 47 | 1011.5 |
| 20260906010519 | 33 | 0 | 0.0 | 4.8 | 0.00 | 0.00 | 0.00 | 47 | 1011.5 |
| 20260906010054 | 33 | 0 | 0.0 | 4.8 | 0.00 | 0.00 | 0.00 | 46 | 1011.4 |
| 20260906005520 | 33 | 0 | 0.0 | 4.8 | 0.00 | 0.00 | 0.00 | 46 | 1011.3 |
| 20260906005020 | 34 | 90 | 1.6 | 6.4 | 0.00 | 0.00 | 0.00 | 46 | 1011.4 |
| 20260906004552 | 34 | 90 | 1.6 | 9.7 | 0.00 | 0.00 | 0.00 | 45 | 1011.3 |
| 20260906004029 | 34 | 111 | 1.6 | 9.7 | 0.00 | 0.00 | 0.00 | 45 | 1011.2 |
| 20260906003524 | 34 | 94 | 4.8 | 9.7 | 0.00 | 0.00 | 0.00 | 44 | 1011.3 |
| 20260906003043 | 35 | 107 | 3.2 | 9.7 | 0.00 | 0.00 | 0.00 | 44 | 1011.3 |
| 20260906002520 | 35 | 0 | 1.6 | 11.3 | 0.00 | 0.00 | 0.00 | 43 | 1011.3 |
| 20260906002024 | 35 | 116 | 3.2 | 12.9 | 0.00 | 0.00 | 0.00 | 43 | 1011.2 |
| 20260906001557 | 35 | 105 | 3.2 | 12.9 | 0.00 | 0.00 | 0.00 | 42 | 1011.2 |
| 20260906001021 | 35 | 65 | 4.8 | 12.9 | 0.00 | 0.00 | 0.00 | 42 | 1011.2 |
| 20260906000520 | 35 | 96 | 6.4 | 14.5 | 0.00 | 0.00 | 0.00 | 43 | 1011.2 |
| 20260906000051 | 35 | 80 | 4.8 | 14.5 | 0.00 | 0.00 | 0.00 | 41 | 1011.1 |
| 20260905235525 | 35 | 72 | 4.8 | 14.5 | 0.00 | 0.00 | 0.00 | 42 | 1011.1 |
| 20260905235024 | 35 | 107 | 4.8 | 14.5 | 0.00 | 0.00 | 0.00 | 42 | 1011.0 |
| 20260905234547 | 35 | 75 | 3.2 | 14.5 | 0.00 | 0.00 | 0.00 | 42 | 1011.0 |
| 20260905234024 | 35 | 132 | 3.2 | 11.3 | 0.00 | 0.00 | 0.00 | 43 | 1010.9 |
| 20260905233524 | 35 | 123 | 1.6 | 12.9 | 0.00 | 0.00 | 0.00 | 43 | 1011.0 |
| 20260905233044 | 35 | 108 | 3.2 | 14.5 | 0.00 | 0.00 | 0.00 | 41 | 1011.0 |
| 20260905232525 | 36 | 115 | 8.0 | 14.5 | 0.00 | 0.00 | 0.00 | 41 | 1011.1 |
| 20260905232022 | 36 | 113 | 4.8 | 12.9 | 0.00 | 0.00 | 0.00 | 41 | 1011.1 |
| 20260905231542 | 36 | 138 | 4.8 | 12.9 | 0.00 | 0.00 | 0.00 | 41 | 1011.1 |
| 20260905231024 | 36 | 173 | 4.8 | 12.9 | 0.00 | 0.00 | 0.00 | 43 | 1011.1 |
| 20260905230525 | 36 | 115 | 4.8 | 12.9 | 0.00 | 0.00 | 0.00 | 42 | 1011.0 |
| 20260905230051 | 36 | 114 | 1.6 | 11.3 | 0.00 | 0.00 | 0.00 | 43 | 1010.9 |
| 20260905225530 | 36 | 139 | 4.8 | 12.9 | 0.00 | 0.00 | 0.00 | 42 | 1010.9 |
| 20260905225022 | 36 | 139 | 3.2 | 14.5 | 0.00 | 0.00 | 0.00 | 44 | 1011.0 |
| 20260905224543 | 36 | 128 | 6.4 | 14.5 | 0.00 | 0.00 | 0.00 | 44 | 1011.0 |
| 20260905224024 | 36 | 123 | 6.4 | 12.9 | 0.00 | 0.00 | 0.00 | 43 | 1011.0 |
| 20260905223521 | 36 | 78 | 1.6 | 14.5 | 0.00 | 0.00 | 0.00 | 43 | 1011.0 |
| 20260905223050 | 36 | 195 | 4.8 | 14.5 | 0.00 | 0.00 | 0.00 | 43 | 1011.1 |
| 20260905222523 | 36 | 142 | 3.2 | 12.9 | 0.00 | 0.00 | 0.00 | 44 | 1011.0 |
| 20260905222020 | 36 | 0 | 1.6 | 12.9 | 0.00 | 0.00 | 0.00 | 42 | 1010.9 |
| 20260905221547 | 36 | 140 | 3.2 | 12.9 | 0.00 | 0.00 | 0.00 | 43 | 1011.0 |